sat.trackr.live / text

‹ back to catalog

SKYCRAFT-4C

NORAD 64896 · 2025-154H

PAYLOAD ACTIVE UNKNOWN

§ Identity

Operator
Country
AUS
Launch date
2025-07-23
Launch site
AFWTR
Launch vehicle
Mass (kg)
RCS (m²)

External: N2YO · Heavens-Above · Gunter

§ Orbital elements

Epoch: 2026-09-21T18:25:52.053312Z

Period
96.28 min
Inclination
97.6594°
Eccentricity
0.0004091
Mean motion
14.95626593 rev/d
Perigee alt
577.6 km
Apogee alt
583.3 km
Semi-major
6,958.6 km
B*
1.0756e-4
RAAN
326.7824°
Arg perigee
304.9572°
Mean anomaly
55.1265°
Rev number
21,358

§ Raw data

SKYCRAFT-4C1 64896U 25154H   26264.76796358  .00001138  00000+0  10756-3 0  99952 64896  97.6594 326.7824 0004091 304.9572  55.1265 14.95626593213584

JSON: /api/v1/satellites/64896 · /tle

For live sub-satellite position, see the globe view (requires WebGL).

§ Visibility from observer

Set your observer location to see the next 7 days of passes ≥ 10°. The values pass through the URL so the page stays shareable.

No JS? Fill the form by hand. The geolocation button needs JavaScript.